Location: Moscow
(39.4853°N, 85.5566°W)
Time: 00:33:55
(UTC+00:00)

Daily predictions for brighter satellites

Satellite Brightness Start Highest point End
(mag) Time Altitude Azimuth Time Altitude Azimuth Time Altitude Azimuth
Cosmos 1025 Rocket 4.2 00:00:01 10° NNW 00:04:09 45° W 00:08:14 10° SSW
CZ-4 R/B 4.5 00:00:51 10° S 00:04:49 75° WSW 00:08:48 10° NNW
MOS 1 Rocket 3.4 00:02:21 10° S 00:06:34 64° W 00:10:49 10° NNW
CZ-2D R/B 3.9 00:14:16 10° S 00:18:11 60° W 00:22:15 10° NNW
SPOT 1/Viking Rocket 3.8 00:16:17 10° S 00:21:22 68° WSW 00:26:32 10° NNW
Cosmos 1782 Rocket 4.2 00:18:07 10° SSW 00:22:27 56° W 00:26:50 10° N
Cosmos 1943 Rocket 3.6 00:18:04 10° SSE 00:20:25 21° SE 00:20:25 21° SE
Tiangong -1.2 00:22:01 10° WNW 00:24:28 46° NW 00:24:28 46° NW
Cosmos 1513 Rocket 4.5 00:22:09 10° S 00:28:16 60° E 00:34:31 10° NNE
DMSP B5D1-3 4.4 00:25:24 25° NNE 00:28:26 67° ESE 00:33:30 10° S
COSMO-SKYMED 1 3.6 00:29:36 10° N 00:33:32 43° WNW 00:37:25 10° SW
SL-19 R/B 4.4 00:28:37 10° S 00:33:59 69° WSW 00:39:12 10° NNW
Cosmos 1140 Rocket 3.4 00:29:03 10° SSW 00:34:15 85° WNW 00:36:53 30° NNE
SL-4 R/B 3.8 00:31:48 10° NNW 00:33:09 18° NNW 00:33:09 18° NNW
Geosat 4.5 00:30:21 10° SSE 00:35:15 59° WSW 00:40:12 10° NNW
Meteor 2-12 Rocket 4.3 00:29:32 10° N 00:35:40 74° E 00:41:43 10° SSE
Cosmos 1833 Rocket 2.5 00:38:35 10° NNW 00:44:14 70° ENE 00:44:22 70° ENE
Cosmos 1975 Rocket 3.5 00:43:30 10° NNW 00:47:45 60° W 00:50:52 18° S
ATLAS 5 CENTAUR R/B 3.8 00:48:29 10° NNW 00:49:26 15° N 00:49:26 15° N
Resurs 01 Rocket 4.0 00:58:12 14° N 00:58:12 14° N 00:58:52 10° N
Cosmos 1464 Rocket 4.3 01:15:01 10° SSW 01:28:40 - N 01:20:09 59° SW
Cosmos 2278 Rocket 3.9 01:23:14 10° SSW 01:25:12 23° SSW 01:25:12 23° SSW
USA 281 3.6 01:39:32 57° WSW 01:39:32 57° WSW 01:45:56 10° NNW
ACS3 Solar Sail 3.8 08:58:53 10° NNE 09:00:18 18° NNE 09:00:18 18° NNE
USA 234 4.0 09:13:56 10° ESE 09:20:05 45° NNE 09:20:56 43° NNE
CZ-2C R/B 4.2 09:16:32 10° NNE 09:19:10 28° NE 09:19:10 28° NE
ARGOS 4.5 09:17:25 10° NNE 09:20:39 34° NE 09:20:39 34° NE
SL-16 R/B 4.5 09:24:02 10° SSE 09:25:07 16° SSE 09:25:07 16° SSE
Cosmos 2219 Rocket 3.8 09:42:01 24° N 09:42:01 24° N 09:44:16 10° NNE
NOSS 3-1 (C) 3.6 09:49:30 46° NNE 09:49:30 46° NNE 09:53:20 10° NE
ADEOS Rocket 4.3 09:43:04 10° N 09:46:25 31° NNW 09:46:25 31° NNW
COSMOS 2428 3.0 09:47:51 44° SSE 09:49:30 63° ESE 09:55:07 10° NNE
Cosmos 2322 3.6 09:56:05 71° S 09:56:44 85° ESE 10:02:26 10° NNE
Cosmos 921 Rocket 3.2 10:07:02 67° SE 10:07:02 67° SE 10:10:55 10° SSE
Meteor 2-21 4.4 10:02:34 10° S 10:08:40 80° E 10:14:44 10° N
BlueWalker 3 3.5 10:09:09 27° NE 10:09:09 27° NE 10:12:02 10° E
Cosmos 1459 Rocket 4.4 10:02:49 10° N 10:09:08 64° E 10:15:24 10° SSE
Cosmos 1939 Rocket 3.6 10:05:30 10° NNE 10:08:21 44° NE 10:08:21 44° NE
Cosmos 1727 Rocket 3.8 10:06:53 10° SSW 10:13:00 68° W 10:19:13 10° N
Cosmos 1269 Rocket 4.4 10:10:45 17° N 10:14:45 64° ENE 10:19:58 10° SSE
Cosmos 2278 Rocket 3.4 10:18:27 10° N 10:23:46 40° ENE 10:29:03 10° SE
Cosmos 2237 Rocket 3.1 10:19:39 10° S 10:25:05 50° ESE 10:30:32 10° NNE
USA 267 4.1 10:22:38 10° NNE 10:28:13 32° NNW 10:29:41 29° NW
Cosmos 1802 Rocket 4.3 10:22:06 10° N 10:28:27 68° E 10:34:40 10° SSE
NOSS 3-1 (A) 2.8 10:29:28 23° SSW 10:32:21 81° ESE 10:37:39 10° NE
Meteor 1-24 Rocket 3.7 10:30:12 10° S 10:36:02 87° W 10:41:42 10° N
CZ-4 R/B 4.2 10:31:23 10° NNE 10:36:14 65° ESE 10:40:58 10° S
Cosmos 2173 Rocket 3.8 10:32:41 10° NNW 10:38:45 70° W 10:44:46 10° S
SJ-11-01 4.1 10:36:52 10° N 10:41:34 82° WNW 10:46:16 10° SSW
Cosmos 44 Rocket 3.4 10:39:37 20° NNW 10:43:13 83° ENE 10:48:23 10° SSE
Cosmos 1908 Rocket 3.4 10:42:36 10° N 10:47:03 83° W 10:51:27 10° S
ACS3 Solar Sail 3.6 10:43:26 10° NNW 10:44:27 13° NNW 10:44:27 13° NNW
Meteor 2-5 Rocket 3.7 10:42:09 10° SSW 10:48:04 77° W 10:53:58 10° N
Gbstr 26 Del rocket 4.1 10:47:30 30° WNW 10:49:01 37° NNW 10:54:24 10° NE
NOAA 12 4.2 10:46:03 10° NNE 10:51:23 81° ESE 10:56:42 10° S
Cosmos 1300 Rocket 4.1 10:47:07 10° N 10:51:24 59° E 10:55:37 10° SSE
Cosmos 2123 Rocket 3.9 10:48:12 10° SSW 10:54:20 62° W 11:00:29 10° N
CZ-2C R/B 3.7 10:55:15 10° NNW 10:58:23 22° NW 10:58:23 22° NW
Cosmos 1943 Rocket 2.2 10:53:52 10° NNW 10:59:25 82° ENE 11:04:54 10° SSE
Cosmos 1140 Rocket 3.5 10:55:53 10° NNW 11:00:51 55° WSW 11:05:48 10° S
SJ 16-02 3.9 10:58:05 10° NNE 11:01:07 18° ENE 11:04:08 10° ESE
ARGOS 4.4 10:58:39 10° NNW 11:02:06 20° WNW 11:02:06 20° WNW
USA 234 3.4 10:56:31 10° SSE 11:02:56 57° SW 11:08:18 15° NW
Cosmos 2016 Rocket 4.0 11:03:51 10° NNW 11:10:11 69° W 11:16:27 10° S
TIMED 4.5 11:06:22 10° NNW 11:10:34 57° WSW 11:14:43 10° S
Iridium 4 Rocket 3.0 11:08:10 10° N 11:12:21 56° W 11:16:23 10° SSW
Aureole 1 4.5 11:10:46 10° SSW 11:14:02 67° WNW 11:18:07 10° NNE
Cosmos 1484 Rocket 2.8 11:17:13 10° NNE 11:20:46 73° E 11:24:17 10° S
COSMO-SKYMED 1 2.3 11:17:22 10° S 11:21:28 76° W 11:25:36 10° NNW
Cosmos 2056 Rocket 4.1 11:18:08 10° S 11:23:27 65° ESE 11:28:49 10° NNE
SL-16 R/B 3.7 11:18:15 10° S 11:23:31 41° ESE 11:28:50 10° NE
Timation 2 Rocket 4.2 11:17:10 10° NNW 11:23:32 53° WSW 11:29:37 10° S
IRS-1D 3.9 11:19:17 10° N 11:23:52 38° WNW 11:28:23 10° SW
SKYMED 2 3.8 11:22:00 10° S 11:26:10 47° W 11:30:23 10° NNW
USA 276 1.9 11:27:18 18° WNW 11:29:05 54° SW 11:31:51 10° SE
Cosmos 2061 Rocket 3.9 11:25:22 10° NNW 11:31:32 71° W 11:37:40 10° S
Aureole 3 Rocket 4.3 11:27:35 10° N 11:32:10 60° E 11:38:31 10° SSE
COSMOS 2428 4.0 11:30:07 10° W 11:34:11 20° NW 11:38:17 10° N
Aureole 3 4.4 11:30:51 10° S 11:37:25 79° W 11:43:14 10° N
Cosmos 1371 Rocket 4.1 11:36:42 10° SSW 11:41:57 90° WNW 11:47:17 10° NNE
USA 306 4.3 11:40:38 10° SSW 11:43:21 32° SE 11:46:42 10° ENE
Cosmos 407 Rocket 3.8 11:38:44 10° NNW 11:43:33 43° WSW 11:48:21 10° S
Thor Agena Rocket 4.0 11:39:07 10° NNE 11:44:19 68° ESE 11:49:27 10° S
Helios 1A Rocket 3.7 11:42:50 10° SSW 11:45:33 22° W 11:48:17 10° NW
BlueWalker 3 2.4 11:43:09 10° WNW 11:46:32 39° SW 11:49:54 10° SSE
IGS 5A 3.3 11:47:28 10° N 11:51:29 76° WNW 11:55:28 10° SSW
